SCP
0 0 0 0 0 0 0 0 0 0 0 0 0 0 0 0 0 0 0 0 0 0 0 0 0 0 1 7 9 5 5 4 5 6 4 3 3 4 6 7 7 11 9 5
0 0 0 0 0 0 0 0 0 0 0 0 0 0 0 0 0 0 0 0 0 0 0 0 0 1 5 9 7 5 5 3 4 6 5 5 5 4 7 9 7 10 6 3
0 0 0 0 0 0 0 0 0 0 0 0 0 0 0 0 0 0 0 0 0 0 0 0 0 2 3 4 4 2 2 3 4 4 7 5 5 10 16 11 10 7 3 2
0 -0 -0 0 0 0 0 0 0 0 0 0 0 0 0 0 0 0 0 0 0 0 -0 0 0 0 1 3 3 3 3 3 5 6 3 2 4 5 10 11 6 4 2 1
-0 -0 0 0 0 0 0 0 0 0 0 0 0 0 0 0 0 0 0 0 0 0 0 0 0 0 0 0 1 2 4 4 3 4 4 3 6 5 9 6 5 3 2 1
-0 0 0 0 0 0 0 0 0 0 0 0 0 0 0 0 0 0 0 0 0 0 0 0 0 0 0 0 0 0 0 3 4 6 5 7 6 5 5 3 4 3 2 2
0 0 0 0 0 -0 -0 0 0 0 0 0 0 0 0 0 0 0 -0 0 0 0 0 0 0 0 0 0 0 0 3 3 6 7 7 5 6 2 5 4 4 2 2 2
0 0 0 0 0 0 0 0 0 0 0 0 0 0 0 0 0 0 0 0 0 0 0 0 0 0 0 0 0 0 0 3 5 6 6 4 5 3 6 4 3 2 2 1
0 0 0 0 0 0 0 0 0 0 0 0 -0 0 0 0 0 0 0 -0 0 0 0 0 0 0 0 0 1 0 0 1 2 4 6 3 3 4 3 3 3 2 1 1
0 0 0 -0 0 0 -0 0 0 0 0 0 0 0 0 0 0 0 0 0 0 0 0 0 0 0 1 2 1 1 1 1 3 4 3 2 3 3 2 3 3 3 2 1
-0 0 -0 -0 0 -0 0 -0 0 -0 0 0 0 0 -0 0 0 0 0 -0 0 0 0 0 0 1 0 0 0 1 2 2 3 2 2 2 2 3 3 3 2 3 3 1
0 0 0 -0 -0 0 -0 0 0 0 0 0 0 -0 -0 -0 -0 0 0 0 0 0 0 0 1 0 0 0 0 1 1 1 1 1 2 2 2 2 2 2 3 2 2 1
0 0 -0 -0 0 0 -0 0 0 0 -0 -0 -0 -0 -0 -0 -0 0 0 0 0 0 0 0 0 0 1 1 1 1 1 1 1 1 2 2 1 1 1 1 1 1 1 1
0 0 0 0 -0 -0 -0 -0 -0 0 -0 -0 -0 -0 -0 -0 -0 0 0 0 0 0 0 0 0 1 1 1 1 1 1 1 1 1 1 1 1 1 1 1 0 0 0 0
0 0 0 -0 -0 -0 0 0 -0 -0 -0 -0 -0 -0 -0 -0 -0 0 0 -0 -0 0 0 0 0 1 1 1 1 1 1 1 1 1 0 0 0 0 0 0 0 0 0 0
0 0 0 -0 -0 -0 0 0 0 -0 0 0 0 -0 -0 -0 -0 -0 -0 -0 0 0 0 0 0 0 1 1 1 1 1 1 1 0 0 0 0 0 0 0 0 0 0 0
0 0 0 0 0 -0 -0 0 -0 0 0 0 0 0 0 0 0 0 -0 0 0 0 0 0 0 0 1 1 1 1 1 1 0 0 0 0 0 0 0 0 0 0 0 0
0 0 0 0 0 0 0 -0 0 0 0 0 0 0 0 0 0 0 -0 0 0 0 0 0 0 -0 1 1 2 1 1 0 0 0 0 0 0 0 0 0 0 0 0 0
0 0 0 0 0 0 0 0 0 0 -0 -0 0 0 0 0 0 0 0 0 0 0 0 0 0 -0 -0 1 1 1 1 0 0 0 0 0 0 0 0 0 0 0 0 0
0 0 0 0 0 0 0 0 0 0 0 0 -0 0 0 0 0 0 0 0 0 0 0 0 0 -0 0 1 1 0 0 0 0 0 0 0 -0 0 0 0 0 0 0 0
0 0 0 0 0 0 0 0 0 0 0 -0 0 -0 0 0 0 0 0 0 0 0 0 0 0 -0 1 0 0 0 0 0 0 0 0 -0 0 0 0 0 0 0 0 0
0 0 0 0 0 0 0 0 0 0 0 0 -0 -0 0 0 0 0 0 0 0 0 0 0 0 -0 0 0 0 0 0 -0 0 0 -0 -0 -0 0 0 0 0 0 0 0
0 0 0 0 0 0 0 0 0 0 0 0 0 -0 0 0 0 0 0 0 0 0 0 0 0 1 0 0 0 0 0 -0 0 -0 -0 -0 0 -0 0 -0 0 0 0 0
0 0 0 0 0 0 0 0 0 0 0 0 0 -0 -0 0 0 0 0 0 0 0 0 0 0 0 0 0 0 0 0 -0 0 -0 -0 -0 0 0 0 0 0 -0 0 0
0 0 0 0 -0 0 0 0 0 0 0 -0 -0 -0 -0 0 0 0 0 0 0 0 0 0 0 1 0 0 0 0 -0 -0 -0 -0 -0 0 0 0 -0 -0 0 0 0 0
0 -0 0 0 0 0 0 0 0 0 -0 -0 -0 0 0 0 0 0 0 0 0 0 0 0 0 0 0 0 0 0 -0 0 -0 -0 0 0 0 -0 -0 -0 -0 -0 0 -0
Wind_Speed_500mb
23 20 25 33 34 40 41 44 53 52 52 55 48 50 58 49 62 58 58 56 82 86 79 74 82 73 79 65 57 56 55 57 50 45 55 59 62 59 57 55 49 48 60 63
23 26 25 22 29 40 41 48 54 52 47 43 50 60 62 47 47 58 64 64 69 67 95 68 55 44 58 60 60 59 62 57 57 59 65 61 46 46 44 46 42 51 62 62
28 32 31 34 33 40 42 43 45 49 44 47 51 59 55 57 56 58 62 74 73 81 67 71 70 54 47 53 55 57 65 68 65 60 57 48 51 49 36 43 43 52 59 52
25 31 36 39 34 36 39 41 47 46 41 38 40 39 45 45 51 46 60 62 66 68 78 69 54 59 65 51 49 55 66 64 63 55 57 55 57 49 55 48 48 52 54 46
33 35 33 40 43 41 49 43 39 42 41 45 48 31 46 45 47 49 45 74 57 65 75 80 75 76 61 51 51 58 67 71 70 62 62 58 57 42 44 44 46 45 38 44
37 25 29 25 38 37 54 37 36 41 35 36 52 44 49 40 48 47 47 61 73 72 64 77 79 59 65 79 71 70 74 78 77 75 68 57 61 49 47 45 52 48 38 45
31 27 15 20 24 53 33 19 24 30 28 35 48 46 41 48 48 63 57 37 68 73 78 72 70 65 56 57 65 74 79 74 81 81 76 65 64 51 51 58 55 46 43 48
27 25 18 22 22 42 32 25 18 24 34 39 44 27 30 53 48 80 69 50 56 45 43 49 36 36 54 67 67 70 63 66 79 77 69 63 70 57 50 60 52 46 40 47
29 37 36 35 18 22 34 31 31 42 36 22 38 47 41 47 48 52 48 65 25 9 12 18 29 28 38 42 39 53 69 63 69 63 65 59 55 54 54 52 45 42 28 39
30 37 39 46 30 28 32 34 30 18 19 30 32 38 24 38 32 44 48 47 40 17 7 19 27 32 25 31 41 42 50 54 56 58 55 52 62 53 49 52 52 45 43 44
34 28 39 43 30 41 26 29 16 25 11 16 25 25 13 38 44 50 36 67 33 21 18 24 33 9 30 42 42 42 47 52 52 52 52 52 56 55 58 55 48 47 44 39
21 13 32 41 50 25 18 21 27 8 13 15 19 38 20 27 47 51 78 20 30 16 4 15 8 9 26 41 39 48 47 47 52 53 54 56 56 55 55 56 52 54 50 35
15 11 24 29 20 26 14 31 34 15 28 36 28 28 23 42 53 81 76 94 8 14 16 21 8 11 20 32 38 45 48 52 53 53 54 53 53 47 52 49 47 40 38 35
22 23 27 27 40 34 23 30 41 39 27 30 30 41 35 25 22 45 75 79 20 12 21 13 16 14 16 34 43 50 52 52 55 52 51 51 50 50 49 45 41 37 35 32
9 17 30 39 44 42 46 43 41 47 51 36 35 36 25 17 16 24 69 83 74 14 20 14 20 11 12 21 48 47 52 56 52 49 49 52 48 47 47 43 38 33 31 32
6 12 29 45 45 46 40 40 41 48 40 42 40 35 29 9 34 33 63 71 29 21 16 17 21 12 14 20 32 50 54 52 55 55 51 48 44 40 41 38 36 37 34 29
6 8 15 23 28 30 26 25 28 39 36 34 33 37 43 33 35 51 48 59 29 20 17 15 18 14 13 23 26 56 53 54 53 50 43 43 43 44 37 40 37 35 32 28
12 10 4 17 21 10 9 21 25 37 42 25 31 33 38 41 44 43 49 46 45 27 25 20 23 15 15 24 30 53 54 54 49 44 45 43 42 41 39 28 37 38 33 32
25 8 7 8 16 29 6 11 14 17 51 28 14 28 34 44 48 43 34 51 60 29 27 17 24 11 16 27 43 45 51 47 46 46 44 40 40 38 36 35 31 34 39 37
15 7 4 9 9 8 4 10 11 6 20 17 23 24 23 30 18 11 47 51 47 44 28 28 38 28 26 38 53 49 45 46 46 43 39 38 38 36 37 34 29 33 29 30
7 5 9 16 10 7 16 21 19 7 8 37 48 42 39 21 29 47 48 53 41 40 40 45 40 29 34 51 64 48 50 47 44 39 38 39 37 39 32 30 28 25 29 33
8 8 7 6 8 7 4 23 7 12 27 31 48 54 50 49 52 42 45 46 42 44 44 46 34 23 17 54 66 52 52 47 46 42 40 42 36 26 26 25 21 25 28 30
9 10 8 6 9 24 36 38 25 23 24 30 33 44 49 50 52 48 40 44 41 46 50 56 42 32 28 56 65 36 55 47 48 47 43 39 33 35 26 17 21 22 25 28
21 34 17 21 13 21 31 31 31 35 28 28 37 49 47 48 52 46 44 42 44 45 50 49 45 35 41 69 63 45 55 49 50 55 47 39 35 25 26 21 15 14 21 27
32 28 25 32 28 27 27 40 28 32 42 50 46 47 59 58 53 47 48 43 46 45 55 43 38 40 45 78 49 56 53 52 54 53 49 41 34 28 28 23 25 20 14 19
10 24 8 6 48 31 33 34 37 50 49 46 47 49 38 34 38 38 37 45 56 60 44 45 45 31 45 63 48 58 53 53 58 53 49 39 40 33 26 24 32 22 19 15
Wind_Direction_500mb
320 299 272 274 272 276 284 279 274 274 287 296 291 269 264 246 242 240 235 242 230 251 255 238 239 235 230 219 219 227 233 226 226 242 255 259 260 259 260 258 239 235 234 236
279 259 271 299 295 287 280 280 280 287 293 293 289 282 277 270 254 240 232 224 248 244 244 245 244 250 211 211 217 229 242 245 246 252 254 257 252 256 255 255 237 231 235 238
306 301 296 285 284 285 278 276 278 285 296 290 283 280 278 271 276 270 258 224 222 244 256 225 229 234 219 217 217 235 247 257 260 254 250 248 241 231 232 234 228 228 231 237
299 293 287 282 275 275 276 279 277 278 281 276 277 279 264 268 260 263 269 267 220 225 252 255 246 244 245 233 229 241 252 258 254 246 237 233 244 241 225 227 223 230 231 224
291 299 322 304 300 291 285 282 279 284 284 285 270 263 270 268 261 251 238 256 253 220 230 248 250 244 237 244 244 246 253 253 247 243 235 236 231 232 214 213 219 227 220 211
269 308 277 299 319 294 287 278 282 284 274 262 268 258 264 260 268 265 248 239 243 245 228 233 239 236 246 251 243 245 249 240 236 236 239 233 227 216 210 201 208 212 214 208
309 307 30 34 356 310 274 283 283 267 256 264 262 255 256 263 257 262 268 262 234 231 230 237 241 240 236 238 246 244 243 229 229 226 235 231 219 206 204 197 205 206 204 200
309 305 328 180 222 297 293 295 269 274 282 281 298 286 288 295 273 265 271 277 274 281 229 228 230 246 249 246 239 232 235 232 225 222 227 227 211 200 196 200 199 204 203 203
309 300 307 298 325 305 306 278 292 291 296 301 284 272 281 269 264 261 254 260 234 224 140 204 230 243 249 249 240 233 221 223 215 218 216 213 197 187 192 197 189 198 193 187
317 307 301 299 297 282 265 288 285 279 279 292 283 282 249 273 268 266 255 243 238 171 197 239 242 241 255 248 241 229 208 212 203 195 198 186 181 183 186 176 179 178 180 189
313 308 304 309 273 253 296 278 265 281 228 263 286 276 8 357 346 333 264 230 190 154 213 221 241 228 250 241 230 204 191 188 185 184 177 180 164 175 182 173 175 177 181 186
349 298 292 292 295 342 213 350 347 308 284 277 295 268 28 357 355 349 339 137 161 160 334 252 128 256 234 234 191 178 183 179 177 172 168 161 166 178 180 175 176 182 183 184
332 297 311 301 287 8 342 319 300 276 285 268 273 286 308 15 354 338 327 330 114 82 325 280 82 326 230 183 168 174 175 170 167 168 165 166 170 173 165 171 181 186 176 174
280 268 264 275 290 297 280 266 278 281 259 263 255 292 321 63 350 323 312 317 269 125 287 323 346 345 234 177 167 168 169 165 163 162 164 167 165 165 167 172 173 168 178 171
325 272 282 279 284 287 288 271 254 270 262 278 294 292 310 143 186 289 283 281 291 287 307 16 340 328 229 182 160 162 165 159 156 165 165 161 161 165 169 175 168 169 171 175
320 283 296 289 284 281 295 294 291 274 309 323 327 289 319 107 178 217 260 275 298 297 336 335 327 307 213 195 163 165 158 157 158 157 156 161 167 164 165 164 169 169 175 177
223 285 301 287 291 304 288 314 314 306 309 327 325 339 329 342 354 345 302 312 319 315 296 316 318 24 270 192 165 159 157 157 155 153 157 163 161 167 165 169 170 168 177 176
173 223 248 284 308 266 24 20 341 311 292 306 337 337 322 320 332 309 289 295 304 295 320 302 315 343 317 216 147 152 156 156 155 157 163 165 164 167 172 175 171 172 173 184
200 139 269 288 300 276 301 349 336 327 299 331 354 339 321 311 311 282 7 351 356 329 282 288 297 322 318 218 160 168 159 160 161 165 165 164 166 167 169 174 172 187 190 187
118 98 233 318 295 292 118 313 306 261 282 312 302 321 314 304 284 297 334 327 332 334 327 312 300 304 301 208 166 168 175 165 169 165 164 165 167 168 174 173 186 199 199 191
176 184 227 252 266 247 205 230 138 208 339 306 311 320 318 303 296 303 304 308 308 309 307 298 289 284 296 187 181 181 173 173 168 162 161 162 163 168 175 179 187 189 178 174
270 280 248 226 256 282 219 308 250 276 288 290 289 309 309 296 293 298 300 296 298 298 292 288 328 288 252 185 183 180 166 173 163 158 157 158 160 163 174 184 175 169 171 178
284 292 280 213 268 345 300 256 290 283 273 285 299 307 300 290 289 291 287 286 286 283 288 297 305 299 258 189 180 185 167 172 161 157 155 146 148 148 150 156 154 160 168 178
302 302 291 292 238 298 304 321 316 326 342 315 306 309 290 282 286 286 280 274 277 283 286 292 291 286 202 180 181 172 169 169 160 152 149 156 158 149 144 147 159 157 172 178
280 288 282 290 301 308 319 328 16 348 326 317 310 302 292 286 281 269 269 272 275 280 287 281 279 284 197 177 184 165 170 168 156 151 153 160 158 156 154 157 160 171 162 163
317 289 295 258 274 315 328 354 349 338 326 320 311 301 295 281 270 263 263 265 269 280 274 271 263 250 189 177 175 165 172 165 156 153 159 164 157 168 172 164 154 159 163 184
Wind_Speed_850mb
23 20 25 33 34 40 41 44 53 52 52 55 48 50 58 49 62 58 58 56 82 86 79 74 82 73 79 65 57 56 55 57 50 45 55 59 62 59 57 55 49 48 60 63
23 26 25 22 29 40 41 48 54 52 47 43 50 60 62 47 47 58 64 64 69 67 95 68 55 44 58 60 60 59 62 57 57 59 65 61 46 46 44 46 42 51 62 62
28 32 31 34 33 40 42 43 45 49 44 47 51 59 55 57 56 58 62 74 73 81 67 71 70 54 47 53 55 57 65 68 65 60 57 48 51 49 36 43 43 52 59 52
25 31 36 39 34 36 39 41 47 46 41 38 40 39 45 45 51 46 60 62 66 68 78 69 54 59 65 51 49 55 66 64 63 55 57 55 57 49 55 48 48 52 54 46
33 35 33 40 43 41 49 43 39 42 41 45 48 31 46 45 47 49 45 74 57 65 75 80 75 76 61 51 51 58 67 71 70 62 62 58 57 42 44 44 46 45 38 44
37 25 29 25 38 37 54 37 36 41 35 36 52 44 49 40 48 47 47 61 73 72 64 77 79 59 65 79 71 70 74 78 77 75 68 57 61 49 47 45 52 48 38 45
31 27 15 20 24 53 33 19 24 30 28 35 48 46 41 48 48 63 57 37 68 73 78 72 70 65 56 57 65 74 79 74 81 81 76 65 64 51 51 58 55 46 43 48
27 25 18 22 22 42 32 25 18 24 34 39 44 27 30 53 48 80 69 50 56 45 43 49 36 36 54 67 67 70 63 66 79 77 69 63 70 57 50 60 52 46 40 47
29 37 36 35 18 22 34 31 31 42 36 22 38 47 41 47 48 52 48 65 25 9 12 18 29 28 38 42 39 53 69 63 69 63 65 59 55 54 54 52 45 42 28 39
30 37 39 46 30 28 32 34 30 18 19 30 32 38 24 38 32 44 48 47 40 17 7 19 27 32 25 31 41 42 50 54 56 58 55 52 62 53 49 52 52 45 43 44
34 28 39 43 30 41 26 29 16 25 11 16 25 25 13 38 44 50 36 67 33 21 18 24 33 9 30 42 42 42 47 52 52 52 52 52 56 55 58 55 48 47 44 39
21 13 32 41 50 25 18 21 27 8 13 15 19 38 20 27 47 51 78 20 30 16 4 15 8 9 26 41 39 48 47 47 52 53 54 56 56 55 55 56 52 54 50 35
15 11 24 29 20 26 14 31 34 15 28 36 28 28 23 42 53 81 76 94 8 14 16 21 8 11 20 32 38 45 48 52 53 53 54 53 53 47 52 49 47 40 38 35
22 23 27 27 40 34 23 30 41 39 27 30 30 41 35 25 22 45 75 79 20 12 21 13 16 14 16 34 43 50 52 52 55 52 51 51 50 50 49 45 41 37 35 32
9 17 30 39 44 42 46 43 41 47 51 36 35 36 25 17 16 24 69 83 74 14 20 14 20 11 12 21 48 47 52 56 52 49 49 52 48 47 47 43 38 33 31 32
6 12 29 45 45 46 40 40 41 48 40 42 40 35 29 9 34 33 63 71 29 21 16 17 21 12 14 20 32 50 54 52 55 55 51 48 44 40 41 38 36 37 34 29
6 8 15 23 28 30 26 25 28 39 36 34 33 37 43 33 35 51 48 59 29 20 17 15 18 14 13 23 26 56 53 54 53 50 43 43 43 44 37 40 37 35 32 28
12 10 4 17 21 10 9 21 25 37 42 25 31 33 38 41 44 43 49 46 45 27 25 20 23 15 15 24 30 53 54 54 49 44 45 43 42 41 39 28 37 38 33 32
25 8 7 8 16 29 6 11 14 17 51 28 14 28 34 44 48 43 34 51 60 29 27 17 24 11 16 27 43 45 51 47 46 46 44 40 40 38 36 35 31 34 39 37
15 7 4 9 9 8 4 10 11 6 20 17 23 24 23 30 18 11 47 51 47 44 28 28 38 28 26 38 53 49 45 46 46 43 39 38 38 36 37 34 29 33 29 30
7 5 9 16 10 7 16 21 19 7 8 37 48 42 39 21 29 47 48 53 41 40 40 45 40 29 34 51 64 48 50 47 44 39 38 39 37 39 32 30 28 25 29 33
8 8 7 6 8 7 4 23 7 12 27 31 48 54 50 49 52 42 45 46 42 44 44 46 34 23 17 54 66 52 52 47 46 42 40 42 36 26 26 25 21 25 28 30
9 10 8 6 9 24 36 38 25 23 24 30 33 44 49 50 52 48 40 44 41 46 50 56 42 32 28 56 65 36 55 47 48 47 43 39 33 35 26 17 21 22 25 28
21 34 17 21 13 21 31 31 31 35 28 28 37 49 47 48 52 46 44 42 44 45 50 49 45 35 41 69 63 45 55 49 50 55 47 39 35 25 26 21 15 14 21 27
32 28 25 32 28 27 27 40 28 32 42 50 46 47 59 58 53 47 48 43 46 45 55 43 38 40 45 78 49 56 53 52 54 53 49 41 34 28 28 23 25 20 14 19
10 24 8 6 48 31 33 34 37 50 49 46 47 49 38 34 38 38 37 45 56 60 44 45 45 31 45 63 48 58 53 53 58 53 49 39 40 33 26 24 32 22 19 15
Wind_Direction_850mb
320 299 272 274 272 276 284 279 274 274 287 296 291 269 264 246 242 240 235 242 230 251 255 238 239 235 230 219 219 227 233 226 226 242 255 259 260 259 260 258 239 235 234 236
279 259 271 299 295 287 280 280 280 287 293 293 289 282 277 270 254 240 232 224 248 244 244 245 244 250 211 211 217 229 242 245 246 252 254 257 252 256 255 255 237 231 235 238
306 301 296 285 284 285 278 276 278 285 296 290 283 280 278 271 276 270 258 224 222 244 256 225 229 234 219 217 217 235 247 257 260 254 250 248 241 231 232 234 228 228 231 237
299 293 287 282 275 275 276 279 277 278 281 276 277 279 264 268 260 263 269 267 220 225 252 255 246 244 245 233 229 241 252 258 254 246 237 233 244 241 225 227 223 230 231 224
291 299 322 304 300 291 285 282 279 284 284 285 270 263 270 268 261 251 238 256 253 220 230 248 250 244 237 244 244 246 253 253 247 243 235 236 231 232 214 213 219 227 220 211
269 308 277 299 319 294 287 278 282 284 274 262 268 258 264 260 268 265 248 239 243 245 228 233 239 236 246 251 243 245 249 240 236 236 239 233 227 216 210 201 208 212 214 208
309 307 30 34 356 310 274 283 283 267 256 264 262 255 256 263 257 262 268 262 234 231 230 237 241 240 236 238 246 244 243 229 229 226 235 231 219 206 204 197 205 206 204 200
309 305 328 180 222 297 293 295 269 274 282 281 298 286 288 295 273 265 271 277 274 281 229 228 230 246 249 246 239 232 235 232 225 222 227 227 211 200 196 200 199 204 203 203
309 300 307 298 325 305 306 278 292 291 296 301 284 272 281 269 264 261 254 260 234 224 140 204 230 243 249 249 240 233 221 223 215 218 216 213 197 187 192 197 189 198 193 187
317 307 301 299 297 282 265 288 285 279 279 292 283 282 249 273 268 266 255 243 238 171 197 239 242 241 255 248 241 229 208 212 203 195 198 186 181 183 186 176 179 178 180 189
313 308 304 309 273 253 296 278 265 281 228 263 286 276 8 357 346 333 264 230 190 154 213 221 241 228 250 241 230 204 191 188 185 184 177 180 164 175 182 173 175 177 181 186
349 298 292 292 295 342 213 350 347 308 284 277 295 268 28 357 355 349 339 137 161 160 334 252 128 256 234 234 191 178 183 179 177 172 168 161 166 178 180 175 176 182 183 184
332 297 311 301 287 8 342 319 300 276 285 268 273 286 308 15 354 338 327 330 114 82 325 280 82 326 230 183 168 174 175 170 167 168 165 166 170 173 165 171 181 186 176 174
280 268 264 275 290 297 280 266 278 281 259 263 255 292 321 63 350 323 312 317 269 125 287 323 346 345 234 177 167 168 169 165 163 162 164 167 165 165 167 172 173 168 178 171
325 272 282 279 284 287 288 271 254 270 262 278 294 292 310 143 186 289 283 281 291 287 307 16 340 328 229 182 160 162 165 159 156 165 165 161 161 165 169 175 168 169 171 175
320 283 296 289 284 281 295 294 291 274 309 323 327 289 319 107 178 217 260 275 298 297 336 335 327 307 213 195 163 165 158 157 158 157 156 161 167 164 165 164 169 169 175 177
223 285 301 287 291 304 288 314 314 306 309 327 325 339 329 342 354 345 302 312 319 315 296 316 318 24 270 192 165 159 157 157 155 153 157 163 161 167 165 169 170 168 177 176
173 223 248 284 308 266 24 20 341 311 292 306 337 337 322 320 332 309 289 295 304 295 320 302 315 343 317 216 147 152 156 156 155 157 163 165 164 167 172 175 171 172 173 184
200 139 269 288 300 276 301 349 336 327 299 331 354 339 321 311 311 282 7 351 356 329 282 288 297 322 318 218 160 168 159 160 161 165 165 164 166 167 169 174 172 187 190 187
118 98 233 318 295 292 118 313 306 261 282 312 302 321 314 304 284 297 334 327 332 334 327 312 300 304 301 208 166 168 175 165 169 165 164 165 167 168 174 173 186 199 199 191
176 184 227 252 266 247 205 230 138 208 339 306 311 320 318 303 296 303 304 308 308 309 307 298 289 284 296 187 181 181 173 173 168 162 161 162 163 168 175 179 187 189 178 174
270 280 248 226 256 282 219 308 250 276 288 290 289 309 309 296 293 298 300 296 298 298 292 288 328 288 252 185 183 180 166 173 163 158 157 158 160 163 174 184 175 169 171 178
284 292 280 213 268 345 300 256 290 283 273 285 299 307 300 290 289 291 287 286 286 283 288 297 305 299 258 189 180 185 167 172 161 157 155 146 148 148 150 156 154 160 168 178
302 302 291 292 238 298 304 321 316 326 342 315 306 309 290 282 286 286 280 274 277 283 286 292 291 286 202 180 181 172 169 169 160 152 149 156 158 149 144 147 159 157 172 178
280 288 282 290 301 308 319 328 16 348 326 317 310 302 292 286 281 269 269 272 275 280 287 281 279 284 197 177 184 165 170 168 156 151 153 160 158 156 154 157 160 171 162 163
317 289 295 258 274 315 328 354 349 338 326 320 311 301 295 281 270 263 263 265 269 280 274 271 263 250 189 177 175 165 172 165 156 153 159 164 157 168 172 164 154 159 163 184